Regional Weather Roundup
Issued by NWS

Home | Current Version | Previous Version | Text Only | Print | Product List | Glossary Off
Versions: 1 2 3 4 5 6 7 8 9 10 11 12 13 14 15 16 17 18 19 20 21 22 23 24 25 26 27 28 29 30 31 32 33 34 35 36 37 38 39 40 41 42 43 44 45 46 47 48 49 50

000
ASUS43 KDTX 031401
RWRMI
MICHIGAN HOURLY REGIONAL WEATHER ROUNDUP
NATIONAL WEATHER SERVICE DETROIT/PONTIAC MI
1000 AM EDT TUE MAY 03 2016

NOTE: "FAIR" INDICATES FEW OR NO CLOUDS BELOW 12,000 FEET WITH NO
SIGNIFICANT WEATHER AND/OR OBSTRUCTION TO VISIBILITY.

MIZ047>049-052>055-059>063-066>070-074>076-081>083-031500-
SOUTHEAST LOWER MICHIGAN

CITY           SKY/WX    TMP DP  RH WIND       PRES   REMARKS
ADRIAN         CLOUDY    54  41  61 CALM      29.93F
ALMA           SUNNY     54  43  66 SW7       29.92F
ANN ARBOR      SUNNY     56  38  50 N5        29.92F
BAD AXE        SUNNY     54  36  50 SW6       29.92F
CARO           SUNNY     56  33  40 CALM      29.91F
DETROIT CITY   CLOUDY    51  43  74 N3        29.93F
DETROIT        MOSUNNY   54  45  71 N3        29.93F
FLINT          SUNNY     58  38  47 CALM      29.93F
GROSSE ILE     SUNNY     54  48  82 N6        29.91F
HILLSDALE      SUNNY     54  37  53 N6        29.93S
HOWELL         SUNNY     56  36  46 CALM      29.92F

CITY           SKY/WX    TMP DP  RH WIND       PRES   REMARKS
JACKSON        SUNNY     56  39  53 N8        29.93F
LAMBERTVILLE   CLOUDY    56  47  71 CALM      29.93S
LANSING        SUNNY     55  39  54 NW5       29.94F
LAPEER         FAIR      53  36  50 CALM      29.92F
MASON          SUNNY     54  41  61 N5        29.93F
MONROE         CLOUDY    53  47  81 NW5       29.92S
PONTIAC        MOSUNNY   56  34  43 N5        29.91F
PORT HOPE        N/A     56  32  40 SW6       29.89F
TRI CITIES     SUNNY     57  35  43 VRB6      29.92F
MIDLAND        FAIR      56  37  49 SW5       29.91F
TROY           SUNNY     56  31  39 CALM      29.93F
SAGINAW HB     SUNNY     55  32  41 S3        29.91F
$$
MIZ043>046-050>051-056>058-064>065-071>073-077>080-031500-
SOUTHWEST LOWER MICHIGAN

CITY           SKY/WX    TMP DP  RH WIND       PRES   REMARKS
BATTLE CREEK   SUNNY     55  41  59 NW6       29.94F
BENTON HARBOR  SUNNY     53  36  52 W7        29.96F
BIG RAPIDS     SUNNY     56  30  36 W8        29.90F
COLDWATER      SUNNY     55  44  64 CALM      29.94S
FREMONT        FAIR      54  34  45 W3        29.92F
HOLLAND        MOSUNNY   55  39  54 SW8       29.95F
GRAND RAPIDS   MOSUNNY   56  40  55 W8        29.94F
IONIA          FAIR      53  42  65 W3        29.92F
KALAMAZOO      SUNNY     56  42  59 VRB6      29.95F
LUDINGTON      SUNNY     55  34  45 SW12      29.90F
MARSHALL       SUNNY     56  39  53 N3        29.93F
MOUNT PLEASANT SUNNY     57  36  44 W6        29.90F
MUSKEGON       MOSUNNY   55  34  45 SW7       29.94F
$$
MIZ016>042-031500-
NORTHERN LOWER MICHIGAN

CITY           SKY/WX    TMP DP  RH WIND       PRES   REMARKS
ALPENA         SUNNY     57  33  40 VRB5      29.87F
BEAVER ISLAND  MOSUNNY   54  33  46 SW15      29.82F
BELLAIRE       SUNNY     57  30  36 SW6       29.86F
CADILLAC       SUNNY     56  31  39 SW14      29.87F
CHARLEVOIX     MOSUNNY   57  32  38 S9        29.87F
FRANKFORT      SUNNY     53  35  50 SW10G17   29.87F
GAYLORD        SUNNY     57  30  35 SW13      29.86F
HARBOR SPRINGS SUNNY     55  32  42 SW5       29.85F
HOUGHTON LAKE  SUNNY     53  37  54 SW6       29.89F
MANISTEE       SUNNY     55  34  44 SW9G16    29.89F
OSCODA         SUNNY     58  36  43 SW7       29.89F
PELLSTON       SUNNY     58  27  30 SW13G18   29.84F
ROGERS CITY    MOSUNNY   58  32  37 SW3       29.86F
TRAVERSE CITY  MOSUNNY   59  32  36 SW12G23   29.84F
$$
MIZ007>008-015-031500-
EASTERN UPPER MICHIGAN

CITY           SKY/WX    TMP DP  RH WIND       PRES   REMARKS
KINROSS          N/A     50  36  57 S7        29.82F
MACKINAC ISLAN SUNNY     53  31  43 S7        29.83F
NEWBERRY       MOSUNNY   52  33  47 S16       29.79F
S. S. MARIE    MOSUNNY   47  36  65 SE5       29.82F
MUNISING         N/A     54  34  46 SW9       29.75F
$$
MIZ004>006-011>014-085-031500-
CENTRAL UPPER MICHIGAN

CITY           SKY/WX    TMP DP  RH WIND       PRES   REMARKS
MANISTIQUE     MOSUNNY   47  38  73 SE5       29.80F
ESCANABA       MOSUNNY   55  39  54 S7        29.80F
MENOMINEE      SUNNY     57  36  44 W7        29.83F
SAWYER-GWINN   MOSUNNY   52  34  50 W9        29.79F
$$
MIZ001>003-009>011-084-031500-
WESTERN UPPER MICHIGAN

CITY           SKY/WX    TMP DP  RH WIND       PRES   REMARKS
IRON MOUNTAIN  CLOUDY    59  33  37 W12G18    29.78F
HOUGHTON       CLOUDY    57  30  35 W17       29.70F
COPPER HARBOR    N/A     56  34  43 N18       29.67F
IRONWOOD         N/A     57  34  41 W18       29.73F
$$

ABBREVIATIONS USED IN REMARKS
   TC - TEMPERATURE IN CELSIUS
  WCI - WIND CHILL INDEX
   HX - HEAT INDEX
  VSB - VISIBILITY




USA.gov is the U.S. government's official web portal to all federal, state and local government web resources and services.